KUIPER-00044

导读

KUIPER-00044卫星由美国亚马逊旗下柯伊伯项目打造,于2025年6月23日成功发射,属于柯伊伯星座组网卫星,该星座计划发射数千颗近地轨道卫星。其主要任务是为全球偏远地区提供高速互联网接入服务,填补网络覆盖空白,助力全球互联,推动数字包容,在轨运行后将逐步完善星座通信能力,拓展互联网服务覆盖范围。

基本信息
目录编号:
64505
目录名称:
KUIPER-00044
国际标识:
2025-134F
轨道中心:
EARTH
卫星名称:
KUIPER-00044
卫星全名:
KUIPER-00044
卫星状态:
在轨 (已飞行446 天)
发射日期:
2025-06-23 UTC
国别 :
美国 (US)
星等 :
--
该卫星已列入 空间交会检测服务 Space Conjunction Data Service (SCDS) ,当前飞行风险评估等级: 无高风险
轨道信息
数据来源 国际轨道数据 AOE轨道数据
星历时间 2026-09-11T10:05:59+0800
1天前
查看轨道信息
2026-09-09T23:00:00+0800
2天前
查看轨道信息
半长轴 7007.698km 7007.677km
偏心率 0.0000898 0.0000819
轨道倾角 51.900° 51.899°
近地点辐角 88.974° 94.256°
升交点赤经 145.724° 152.191°
平近点角 271.133° 29.389°
近地点 628.931km 628.966km
远地点 630.191km 630.114km
周期 97.302分钟 97.302分钟
每日圈数 14.79925 14.799318
详细信息
使用方式:
暂无
2D轨道图
3D轨道图
轨道高度分析图
轨道倾角分析图
轨道综合分析图
查看轨道综合分析图
与全量物体交会距离演化趋势
与全量物体交会风险概率演化趋势